Location: Newark
(48.1500°N, 13.1167°E)
Time: 01:55:58
(UTC+00:00)

ISS - Pass Details

Date: 25 September 2021
Orbit: 417 x 423 km, 51.6° (Epoch: 24 October)

Event Time Altitude Azimuth Distance (km) Brightness Sun altitude
Rises 19:44:39 0° 290° (WNW) 2,367 1.3 -27.2°
Reaches altitude 10° 19:46:46 10° 294° (WNW) 1,503 0.0 -27.5°
Enters shadow 19:48:07 22° 299° (WNW) 980 -1.2 -27.6°
